User: anonymous   Login
Location: Dompnac
(44.5644°N, 4.1026°E)
Time: 23:37:19
(UTC+00:00)
Language:

DELFI C3 - Orbit

View from above orbital plane
View from above orbital plane
View from above satellite
View from above satellite

Ground track
Ground track

The orbit data is extracted from the following two-line orbital elements,

1 32789U 08021G   21060.57803836  .00002263  00000-0  14857-3 0  9990
2 32789  97.3894 100.0557 0012924 147.5770 212.6255 15.08551388700563
Epoch (UTC): 01 March 2021 13:52:22
Eccentricity: 0.0012924
inclination: 97.3894°
perigee height: 531 km
apogee height: 549 km
right ascension of ascending node: 100.0557°
argument of perigee: 147.5770°
revolutions per day: 15.08551388
mean anomaly at epoch: 212.6255°
orbit number at epoch: 70056

The dashed part of the orbit path shows where the satellite is in the earth's shadow,  

DLR